SCP
0 0 0 0 0 0 0 0 0 0 0 0 0 0 0 0 0 0 0 0 0 0 0 0 0 0 0 0 0 0 0 0 0 0 0 0 0 0 0 0 0 0 0 0
0 0 0 0 0 0 0 0 0 0 0 0 0 0 0 0 0 0 0 0 0 0 0 0 0 0 0 0 0 0 0 0 0 0 0 0 0 0 0 0 0 0 0 0
0 0 0 0 0 0 0 0 0 0 0 0 0 0 0 0 0 0 0 0 0 0 0 0 0 0 0 0 0 0 0 0 0 0 0 0 0 0 0 0 0 0 0 0
0 0 0 0 0 0 0 0 0 0 0 0 0 0 0 0 0 0 0 0 0 0 0 0 0 0 0 0 0 0 0 0 0 0 0 0 0 0 0 0 0 0 0 0
0 0 0 0 0 0 0 0 0 0 0 0 0 0 0 0 0 0 0 0 0 0 0 0 0 0 0 0 0 0 0 0 0 0 0 0 0 0 0 0 0 0 0 0
0 0 0 0 0 0 0 0 0 0 0 0 0 0 0 0 0 0 0 0 0 0 0 0 0 0 0 0 0 0 0 0 0 0 0 0 0 0 0 0 0 0 0 0
0 0 0 0 0 0 0 0 0 0 0 0 0 0 0 0 0 0 0 0 0 0 0 0 0 0 0 0 0 0 0 0 0 0 0 0 0 0 0 0 0 0 0 0
0 0 0 0 0 0 0 0 0 0 0 0 0 0 0 0 0 0 0 0 0 0 0 0 0 0 0 0 0 0 0 0 0 0 0 0 0 0 0 0 0 0 0 0
0 0 0 0 0 0 0 0 0 0 0 0 0 0 0 0 0 0 0 0 0 0 0 0 0 0 0 0 0 0 0 0 0 0 0 0 0 0 0 0 0 0 0 0
0 0 0 0 0 0 0 0 0 0 0 0 0 0 0 0 0 0 0 0 0 0 0 0 0 0 0 0 0 0 0 0 0 0 0 0 0 0 0 0 0 0 0 0
0 0 0 0 0 0 0 0 0 0 0 0 0 0 0 0 0 0 0 0 0 0 0 0 0 0 0 0 0 0 0 0 0 0 0 0 0 0 0 0 0 0 0 0
0 0 0 0 0 0 0 0 0 0 0 0 0 0 0 0 0 0 0 0 0 0 0 0 0 0 0 0 0 0 0 0 0 0 -0 -0 0 0 0 0 0 0 0 0
0 0 0 0 0 0 0 0 0 0 0 0 0 0 0 0 0 0 0 0 0 0 0 0 0 0 0 0 0 0 0 0 0 0 0 0 0 0 0 0 0 0 0 0
0 0 0 0 0 0 0 0 0 0 0 0 0 0 0 0 0 0 0 0 0 0 0 0 0 0 0 0 0 0 0 0 0 0 0 0 0 0 0 0 0 0 0 0
0 0 0 0 0 0 0 0 0 0 0 0 0 0 0 0 0 0 0 0 0 0 0 0 0 0 0 0 0 0 0 0 0 0 0 0 0 0 0 0 0 0 0 0
0 0 0 0 0 0 0 0 0 0 0 0 0 0 0 0 0 0 0 0 0 0 0 0 0 0 0 0 0 0 0 0 0 0 0 0 0 0 0 0 0 0 0 0
0 0 0 0 0 0 0 0 0 0 0 0 0 0 0 0 0 0 0 0 0 0 0 0 0 0 0 0 0 0 0 0 0 0 0 0 0 0 0 0 0 0 0 0
0 0 0 0 0 0 0 0 0 0 0 0 0 0 0 0 0 0 0 0 0 0 0 0 0 0 0 0 0 0 0 0 0 0 0 0 0 0 0 0 0 0 0 0
0 0 0 0 0 0 0 0 0 0 0 0 0 0 0 0 0 0 0 0 0 0 0 0 0 0 0 0 0 0 0 0 0 0 0 0 0 0 0 0 0 0 0 0
0 0 0 0 0 0 0 0 0 0 0 0 0 0 0 0 0 0 0 0 0 0 0 0 0 0 0 0 0 0 0 0 0 0 0 0 0 0 0 0 0 0 0 0
0 0 0 0 0 0 0 0 0 0 0 0 0 0 0 0 0 0 0 0 0 0 0 0 0 0 0 0 0 0 0 0 0 0 0 0 0 0 0 0 0 0 0 0
0 0 0 0 0 0 0 0 0 0 0 0 0 0 0 0 0 0 0 0 0 0 0 0 0 0 0 0 0 0 0 0 0 0 0 0 0 0 0 0 0 0 0 0
0 0 0 0 0 0 0 0 0 0 0 0 0 0 0 0 0 0 0 0 0 0 0 0 0 0 0 0 0 0 0 0 0 0 0 0 0 0 0 0 0 0 0 0
0 0 0 0 0 0 0 0 0 0 0 0 0 0 0 0 0 0 0 0 0 0 0 0 0 0 0 0 0 0 0 0 0 0 0 0 0 0 0 0 0 0 0 0
0 0 0 0 0 0 0 0 0 0 0 0 0 0 0 0 0 0 0 0 0 0 0 0 0 0 0 0 0 0 0 0 0 0 0 0 0 0 0 0 0 0 0 0
0 0 0 0 0 0 0 0 0 0 0 0 0 0 0 0 0 0 0 0 0 0 0 0 0 0 0 0 0 0 0 0 0 0 0 0 0 0 0 0 0 0 0 0
Wind_Speed
2 3 2 2 2 0 1 2 2 1 1 2 3 4 5 7 8 8 8 8 9 9 9 8 8 7 7 6 6 6 6 5 4 2 2 1 2 2 2 3 3 3 3 3
4 1 1 2 3 3 3 3 2 1 1 3 3 5 5 7 9 8 8 8 9 9 10 9 9 8 8 7 7 7 6 5 4 2 1 1 2 2 3 2 3 3 3 3
2 2 3 5 5 4 3 3 2 1 2 3 4 4 6 7 8 8 8 8 9 10 11 11 10 10 8 8 8 6 7 6 5 4 2 2 2 2 2 3 2 3 3 3
2 2 4 4 3 3 2 2 3 3 4 2 4 2 3 6 8 9 10 10 10 11 11 11 11 10 10 9 8 7 7 7 6 5 4 3 2 2 2 2 2 3 3 4
2 3 4 3 2 2 1 1 3 4 5 4 4 4 2 5 6 9 11 12 11 12 12 12 12 11 10 9 8 7 7 6 6 5 4 3 2 2 2 2 3 3 4 4
2 2 3 2 1 2 3 3 4 4 5 4 2 4 0 3 4 6 9 12 12 13 13 12 12 10 10 9 8 7 7 6 5 5 5 4 3 3 3 3 3 2 3 3
4 4 3 3 4 5 5 4 3 4 3 1 1 3 1 1 2 4 6 10 12 13 13 13 13 12 11 10 9 8 8 7 7 6 5 4 4 3 3 3 3 2 2 2
5 5 6 5 4 4 5 5 3 2 1 0 2 3 1 1 1 2 4 7 10 13 13 14 14 12 11 11 10 10 9 8 7 6 6 5 5 3 2 2 2 2 2 2
4 3 4 3 3 4 4 4 3 4 3 3 2 1 1 1 1 2 4 7 10 12 13 13 13 13 12 12 11 11 10 9 8 8 6 5 5 4 3 3 3 2 2 2
4 3 4 4 5 3 3 2 3 4 3 2 1 1 0 0 0 1 3 6 9 11 13 13 13 13 12 11 11 10 10 10 9 8 6 5 5 5 4 3 3 3 3 2
6 5 5 7 6 5 5 5 4 3 3 3 1 2 3 2 2 1 3 4 7 10 11 12 12 12 12 11 11 11 11 10 9 9 8 7 6 5 4 3 4 3 3 3
6 5 5 5 3 4 6 5 5 4 2 3 3 1 3 1 1 1 2 3 6 8 10 10 11 11 11 12 12 12 11 11 9 8 8 7 6 6 6 5 4 4 4 3
6 6 6 6 6 6 6 6 7 5 4 4 4 1 2 0 0 1 1 3 5 7 9 9 10 11 11 12 12 12 11 11 10 9 8 8 7 7 6 6 5 4 4 4
5 7 7 5 1 4 6 7 9 8 5 5 5 5 3 3 1 1 2 3 5 7 9 10 10 10 10 11 12 12 11 11 10 10 9 9 8 7 7 6 5 5 4 4
6 8 7 6 5 5 7 8 10 11 9 8 6 7 6 4 3 2 2 4 5 7 9 10 10 10 11 11 11 11 11 11 11 11 10 10 9 8 7 7 6 5 5 4
6 7 7 8 7 8 9 10 11 11 11 10 9 8 6 4 3 4 4 4 6 8 9 10 10 11 11 12 11 11 11 11 11 11 10 9 9 8 8 7 7 6 5 5
6 6 7 7 6 8 11 10 11 10 10 10 9 6 4 4 4 4 4 5 6 7 8 10 10 10 11 11 11 11 11 11 11 11 10 10 9 9 9 8 7 7 6 6
8 7 6 6 7 11 4 2 7 9 9 9 9 8 6 5 4 4 4 5 5 6 7 9 9 10 10 10 11 10 11 11 11 11 10 10 10 10 9 8 8 8 7 6
9 8 6 7 9 9 6 5 7 8 8 7 9 8 6 3 4 4 3 3 4 5 6 7 9 9 10 11 11 11 11 11 10 10 10 10 10 10 9 9 9 7 6 6
9 10 8 8 9 9 5 3 4 7 8 4 6 5 4 5 5 2 2 2 2 3 4 6 7 9 10 10 11 11 11 11 10 10 10 10 10 10 10 9 8 7 6 6
11 10 12 11 10 8 3 3 6 8 2 2 3 4 4 5 3 0 2 2 2 2 3 5 7 8 9 10 11 11 10 10 10 9 9 9 10 10 9 8 7 7 6 6
11 10 11 10 11 9 4 6 7 3 2 1 2 3 4 4 2 2 2 2 2 3 4 5 6 7 8 10 11 11 10 9 9 9 9 9 9 8 8 8 7 7 7 6
10 8 6 8 6 0 4 5 3 3 3 2 2 2 3 3 3 3 3 2 3 3 4 5 6 6 7 9 10 10 9 9 9 10 10 9 9 8 8 8 8 7 6 6
6 5 8 9 7 5 5 5 4 4 4 3 3 2 3 3 3 3 2 2 3 3 4 5 6 7 7 8 9 9 9 10 10 10 10 9 9 8 8 6 6 6 6 6
6 7 9 10 7 6 7 6 4 4 3 3 2 2 2 2 3 3 2 3 3 3 4 5 6 6 7 8 8 8 9 10 11 10 9 9 8 8 7 6 4 5 4 4
8 9 10 9 8 7 7 5 5 5 4 3 3 2 2 3 3 3 3 3 3 4 4 5 5 6 7 8 8 8 9 10 10 9 9 7 7 7 6 6 5 3 1 3
Wind_Direction
172 205 190 176 189 304 198 198 164 105 121 221 222 223 205 193 200 203 200 199 198 195 185 175 176 180 181 177 175 169 168 155 152 148 154 131 107 102 82 63 54 52 52 51
179 180 113 143 157 184 192 184 164 148 171 241 250 247 221 202 208 208 207 207 205 195 185 178 184 184 186 179 182 178 174 169 166 160 148 118 103 94 73 71 65 44 50 51
176 75 143 164 168 181 205 219 199 194 199 212 252 237 207 196 207 208 213 214 210 200 192 183 186 185 185 183 183 184 179 175 173 163 147 136 134 143 115 95 80 51 49 56
179 161 178 184 182 211 195 210 218 216 233 212 245 266 181 188 201 209 210 209 208 200 196 188 186 187 188 187 185 187 183 183 175 172 177 169 169 133 106 104 97 90 72 69
161 181 200 211 209 228 121 171 217 240 259 249 227 258 153 174 208 211 210 208 205 200 196 191 189 190 190 183 184 188 182 183 177 183 181 202 176 125 118 121 112 102 85 75
205 201 243 246 171 181 154 181 204 225 246 251 244 256 182 174 221 213 204 203 203 197 194 193 190 188 186 181 184 184 182 178 176 186 188 194 158 147 140 138 127 120 105 93
187 184 184 197 176 170 205 232 225 207 208 221 84 254 274 71 234 233 212 199 197 193 192 191 189 189 187 184 185 183 181 180 182 186 185 180 170 169 158 148 139 134 116 104
203 188 177 197 225 208 208 248 285 295 300 88 194 247 44 46 256 236 216 197 190 190 191 191 190 190 189 187 186 185 186 185 182 186 183 178 171 180 153 148 144 139 116 98
211 173 150 187 222 234 208 224 287 290 280 267 206 202 179 185 195 190 190 188 189 189 189 190 190 191 190 188 188 189 188 187 185 187 184 180 177 180 168 162 148 129 119 109
235 199 164 168 191 206 273 231 221 253 279 266 234 209 41 113 345 181 188 189 187 187 188 189 190 190 192 189 189 191 191 189 186 186 185 180 179 175 170 166 154 149 139 131
232 218 171 182 212 206 193 207 227 235 279 295 303 79 42 337 322 250 201 192 184 186 187 186 187 190 190 187 187 190 192 190 186 187 185 181 176 174 173 170 159 157 152 155
212 239 211 196 184 251 232 234 233 248 219 262 285 41 73 338 288 251 211 184 179 183 183 183 184 184 187 189 191 192 192 189 187 186 183 182 176 176 181 174 167 166 162 165
183 225 217 193 186 193 214 222 227 247 253 249 262 280 98 254 37 168 187 174 172 174 176 176 179 184 187 191 193 193 192 189 184 183 182 182 182 183 185 180 172 172 168 164
218 228 237 240 236 192 209 212 218 228 242 248 254 277 282 275 288 201 197 181 175 174 176 177 180 185 188 190 191 192 192 187 182 182 184 187 190 188 186 181 177 175 171 172
226 236 236 252 255 237 235 227 218 227 243 259 267 274 279 276 271 239 209 188 181 181 185 186 186 185 186 189 190 190 190 187 183 184 187 190 188 186 186 181 180 176 174 178
225 237 235 233 232 238 245 237 228 232 241 249 259 270 275 275 257 233 221 204 197 196 195 193 192 189 191 190 189 188 189 187 185 187 189 187 188 185 187 185 182 178 178 183
206 229 237 238 224 236 242 235 229 228 231 239 252 265 272 260 249 244 234 221 213 205 200 198 198 195 195 193 188 188 189 185 188 190 187 184 186 186 190 186 182 182 185 187
221 222 234 245 231 241 254 213 231 237 240 240 253 263 259 262 264 252 241 229 217 205 200 200 199 195 192 188 185 184 182 184 188 189 186 184 185 187 190 188 187 192 194 188
227 220 227 235 243 252 248 217 217 230 247 242 244 252 251 243 224 207 202 231 230 216 205 199 197 192 187 183 180 179 181 184 188 189 188 185 186 186 187 189 191 193 193 192
207 219 227 229 240 245 236 185 214 235 243 222 233 237 231 218 229 190 148 201 216 209 200 193 186 185 183 179 176 178 181 184 189 190 190 186 185 185 188 190 188 184 186 192
189 203 219 229 240 250 244 171 192 226 234 150 217 225 219 227 267 106 164 181 187 182 182 181 178 180 181 174 174 181 183 189 188 183 182 180 180 183 185 186 184 184 185 188
206 205 212 221 234 238 175 186 217 278 6 238 232 231 229 240 248 214 188 170 164 160 166 174 174 175 174 172 176 182 186 185 175 170 173 176 177 178 179 180 183 187 185 188
220 222 217 221 233 299 190 219 256 292 275 268 270 256 237 238 232 217 204 179 163 163 165 171 171 171 172 174 181 184 180 173 168 168 171 174 174 176 178 179 181 183 187 194
214 224 225 229 232 231 231 243 248 263 270 273 271 260 240 235 228 215 200 179 168 164 166 170 170 174 174 176 183 184 173 170 169 170 171 171 173 174 176 178 184 186 190 195
217 211 222 230 232 230 233 242 250 264 266 271 275 256 248 242 237 226 212 193 182 168 170 176 178 180 179 176 178 178 174 172 173 172 169 170 170 168 170 171 176 191 194 201
218 223 226 233 229 237 240 242 248 249 258 266 268 275 270 247 236 233 223 209 197 183 176 178 181 184 181 176 176 174 174 175 174 171 170 169 167 168 169 166 155 92 126 124